Home   Weather   Dublin   Past weeks

Flag for Ireland Past Weather in Dublin, Ireland — Yesterday and Last 2 Weeks

Now
57 °F

Light rain. Broken clouds.


Feels Like: 53 °F
Forecast: 51 / 62 °F
Wind: 22 mph from Southwest

Location: Dublin Airport

Current Time: Jun 23, 2017 at 6:17:57 am

Latest Report: Jun 23, 2017 at 5:30 am


Visibility: N/A

Pressure: 29.80 "Hg

Humidity: 82%

Dew Point: 52 °F

Location of DublinLocation

Past Weather in Dublin — Graph

°F

Dublin Temperature Yesterday

Maximum temperature yesterday: 64 °F (at 12:00 am)
Minimum temperature yesterday: 57 °F (at 6:00 am)
Average temperature yesterday: 60 °F

High & Low Weather Summary for the Past Weeks

 TemperatureHumidityPressure
High79 °F (Jun 21, 1:00 pm)100% (Jun 10, 2:30 am)30.30 "Hg (Jun 10, 2:30 am)
Low50 °F (Jun 9, 2:00 am)36% (Jun 17, 4:00 pm)29.47 "Hg (Jun 8, 9:00 am)
Average61 °F76%29.94 "Hg
* Reported Jun 8 5:00 am — Jun 23 5:00 am, Dublin. Weather by CustomWeather, © 2017

Note: Actual official high and low records may vary slightly from our data, if they occured in-between our weather recording intervals... More about our weather records

Advertising

Dublin Weather History for the Previous 24 Hours

Scroll right to see more
 ConditionsComfort  
Time TempWeatherWind HumidityBarometerVisibility
5:00 am
Fri, Jun 23
57 °FBroken clouds.24 mph77%29.80 "HgN/A
4:30 am57 °FPassing clouds.23 mph77%29.80 "HgN/A
4:00 am57 °FOvercast.22 mph77%29.80 "HgN/A
3:30 am57 °FPassing clouds.18 mph77%29.83 "HgN/A
3:00 am57 °FPartly cloudy.20 mph77%29.83 "HgN/A
2:30 am57 °FPartly cloudy.18 mph77%29.83 "HgN/A
2:00 am57 °FPassing clouds.14 mph77%29.83 "HgN/A
1:30 am57 °FPassing clouds.17 mph72%29.86 "HgN/A
1:00 am57 °FPassing clouds.18 mph72%29.86 "HgN/A
12:30 am59 °FPassing clouds.15 mph72%29.89 "HgN/A
12:00 am59 °FPassing clouds.10 mph72%29.89 "HgN/A
11:30 pm
Thu, Jun 22
59 °FPartly cloudy.10 mph72%29.89 "HgN/A
11:00 pm59 °FPartly cloudy.9 mph68%29.89 "HgN/A
10:30 pm59 °FPartly cloudy.12 mph72%29.89 "HgN/A
10:00 pm59 °FPartly cloudy.9 mph68%29.89 "HgN/A
9:30 pm59 °FBroken clouds.10 mph68%29.89 "HgN/A
9:00 pm59 °FBroken clouds.10 mph68%29.89 "HgN/A
8:30 pm61 °FBroken clouds.14 mph63%29.89 "HgN/A
8:00 pm61 °FBroken clouds.15 mph63%29.92 "HgN/A
7:00 pm63 °FPartly sunny.15 mph59%29.92 "HgN/A
6:30 pm63 °FPartly sunny.13 mph64%29.89 "HgN/A
6:00 pm64 °FBroken clouds.14 mph56%29.89 "HgN/A
5:30 pm64 °FPartly sunny.13 mph56%29.89 "HgN/A
5:00 pm64 °FPartly sunny.13 mph60%29.89 "HgN/A
4:30 pm64 °FBroken clouds.15 mph56%29.89 "HgN/A
4:00 pm64 °FBroken clouds.15 mph60%29.89 "HgN/A
3:30 pm64 °FBroken clouds.15 mph60%29.92 "HgN/A
3:00 pm63 °FBroken clouds.16 mph59%29.92 "HgN/A
2:30 pm63 °FBroken clouds.16 mph64%29.92 "HgN/A
2:00 pm63 °FBroken clouds.14 mph64%29.92 "HgN/A
1:30 pm61 °FPartly sunny.14 mph68%29.92 "HgN/A
1:00 pm61 °FPartly sunny.14 mph68%29.92 "HgN/A
12:30 pm59 °FPartly sunny.15 mph72%29.92 "HgN/A
12:00 pm61 °FPartly sunny.12 mph68%29.92 "HgN/A
11:30 am57 °FPartly sunny.16 mph77%29.92 "HgN/A
11:00 am59 °FPartly sunny.13 mph72%29.92 "HgN/A
10:30 am57 °FPartly sunny.14 mph77%29.89 "HgN/A
10:00 am57 °FPartly sunny.14 mph82%29.89 "HgN/A
9:30 am57 °FPartly sunny.12 mph82%29.89 "HgN/A
9:00 am57 °FDrizzle. Partly sunny.14 mph88%29.89 "HgN/A
8:30 am57 °FPartly sunny.13 mph82%29.89 "HgN/A
8:00 am57 °FPartly sunny.12 mph82%29.86 "HgN/A
7:30 am57 °FPartly sunny.13 mph88%29.86 "HgN/A
7:00 am57 °FBroken clouds.13 mph82%29.86 "HgN/A
6:30 am57 °FBroken clouds.12 mph88%29.86 "HgN/A
6:00 am57 °FBroken clouds.10 mph88%29.83 "HgN/A
Weather by CustomWeather, © 2017

See weather overviewHow to use our weather pages